#timestamp,LO_Frequency,Hit,StdDev 
1621879215.4,286047000.2,N
1621879235.3,286047000.7,N
1621879255.1,286047000.0,N
1621879275.9,286046999.7,N
1621879295.7,286046996.6,N
1621879315.5,286046997.5,N
1621879335.4,286046997.1,N
1621879355.2,286046998.9,N
1621879375.0,286046999.9,N
1621879375.9,286046999.9,N
1621879395.8,286046999.8,N
1621879415.6,286047000.1,N
1621879435.5,286046998.7,N
1621879455.3,286046998.4,N
1621879475.1,286046997.4,N
1621879495.9,286046997.0,N
1621879515.7,286046997.1,N
1621879535.5,286046998.8,N
1621879555.4,286047001.0,N
1621879575.2,286047000.9,N
1621879595.1,286046999.6,N
1621879596.0,286046999.6,N
1621879615.8,286046996.9,N
1621879635.6,286047001.1,N
1621879655.5,286047001.1,N
1621879675.3,286047000.9,N
1621879695.1,286046998.4,N
1621879715.9,286046996.6,N
1621879735.7,286046997.1,N
1621879755.6,286046998.8,N
1621879775.4,286047000.7,N
1621879795.2,286047001.9,N
1621879815.1,286047001.3,N
1621879816.0,286047001.3,N
1621879835.8,286047001.9,N
1621879855.7,286046999.9,N
1621879875.5,286047002.7,N
1621879895.3,286046998.2,N
1621879915.2,286047000.6,N
1621879935.9,286047002.4,N
1621879955.7,286047001.7,N
1621879975.6,286047002.3,N
1621879995.4,286047002.3,N
1621880015.2,286047003.9,N
1621880035.1,286047001.3,N
1621880036.0,286047001.3,N
1621880055.8,286047001.7,N
1621880075.7,286047001.3,N
1621880095.5,286047001.7,N
1621880115.3,286047000.7,N
1621880135.2,286047000.2,N
1621880155.0,286047002.6,N
1621880155.9,286047002.6,N
1621880175.8,286047001.1,N
1621880195.6,286046998.9,N
1621880215.4,286047000.3,N
1621880235.3,286046998.8,N
1621880255.1,286047001.2,N
1621880275.8,286046996.6,N
1621880295.7,286047001.6,N
1621880315.5,286047001.3,N
1621880335.4,286047002.5,N
1621880355.2,286046999.7,N
1621880375.0,286047002.2,N
1621880375.9,286047002.2,N
1621880395.8,286047001.5,N
1621880415.6,286047004.0,N
1621880435.5,286047003.0,N
1621880455.3,286047004.2,N
1621880475.1,286047002.2,N
1621880495.9,286047004.1,N
1621880515.7,286047002.8,N
1621880535.5,286047003.1,N
1621880555.4,286047005.9,Y
1621880575.2,286047002.6,P
1621880595.1,286047001.9,P
1621880596.0,286047001.9,P
1621880615.8,286047003.9,Y
1621880635.6,286046998.7,P
1621880655.5,286046997.0,N
1621880675.3,286046998.8,N
1621880695.1,286046998.3,N
1621880715.9,286047000.4,N
1621880735.7,286047000.6,N
1621880755.6,286046998.1,N
1621880775.4,286047000.5,N
1621880795.2,286047002.8,N
1621880815.1,286047000.1,N
1621880816.0,286047000.1,N
1621880835.8,286047002.8,N
1621880855.6,286046998.3,N
1621880875.5,286046997.7,N
1621880895.3,286046996.2,N
1621880915.2,286046994.9,N
1621880935.9,286046995.4,N
1621880955.7,286046998.0,N
1621880975.6,286046998.0,N
1621880995.4,286046998.0,N
1621881015.2,286046999.0,N
1621881035.1,286046998.7,N
1621881036.0,286046998.7,N
1621881055.8,286047002.8,N
1621881075.7,286047002.5,N
1621881095.5,286047002.7,N
1621881115.3,286046998.8,N
1621881135.2,286046998.9,N
1621881155.0,286046999.3,N
1621881155.9,286046999.3,N
1621881175.7,286046996.5,N
1621881195.6,286046999.5,N
1621881215.4,286046999.1,N
1621881235.3,286046998.4,N
1621881255.1,286047000.6,N
1621881256.0,286047000.6,N
1621881275.8,286046998.1,N
1621881295.7,286046999.5,N
1621881315.5,286046998.0,N
1621881335.4,286046995.9,N
1621881355.2,286046995.3,N
1621881375.0,286046996.6,N
1621881375.9,286046996.6,N
1621881395.8,286046995.3,N
1621881415.6,286046996.5,N
1621881435.4,286046998.6,N
1621881455.3,286046999.2,N
1621881475.1,286046998.2,N
1621881495.9,286046998.2,N
1621881515.7,286046999.5,N
1621881535.5,286046996.9,N
1621881555.4,286046997.2,N
1621881575.2,286046996.8,N
1621881595.0,286046998.6,N
1621881595.9,286046998.6,N
1621881615.8,286046998.1,N
1621881635.6,286046998.3,N
1621881655.5,286046998.1,N
1621881675.3,286046998.3,N
1621881695.1,286046998.6,N
1621881715.9,286046999.8,N
1621881735.7,286047002.4,N
1621881755.5,286047002.8,N
1621881775.4,286047000.3,N
1621881795.2,286047000.7,N
1621881815.1,286046999.9,N
1621881816.0,286046999.9,N
1621881835.8,286047001.1,N
1621881855.6,286047000.7,N
1621881875.5,286047000.3,N
1621881895.3,286046998.2,N
1621881915.2,286047000.6,N
1621881935.9,286047000.6,N
1621881955.7,286047000.6,N
1621881975.6,286047002.7,N
1621881995.4,286047000.1,N
1621882015.2,286047002.2,N
1621882035.1,286046998.1,N
1621882036.0,286046998.1,N
1621882055.8,286046998.5,N
1621882075.7,286047001.1,N
1621882095.5,286046998.3,N
1621882115.3,286047000.9,N
1621882135.2,286047001.5,N
1621882155.0,286047001.4,N
1621882155.9,286047001.4,N
1621882175.7,286046999.9,N
1621882195.6,286046999.9,N
1621882215.4,286047002.4,N
1621882235.3,286047002.5,N
1621882255.1,286047002.8,N
1621882256.0,286047002.8,N
1621882275.8,286047002.3,N
1621882295.7,286046999.8,N
1621882315.5,286047000.7,N
1621882335.3,286046999.3,N
1621882355.2,286047000.9,N
1621882375.0,286047002.2,N
1621882375.9,286047002.2,N
1621882395.8,286047002.1,N
1621882415.6,286047002.6,N
1621882435.4,286047002.5,N
1621882455.3,286047001.9,N
1621882475.1,286047000.3,N
1621882495.8,286047001.4,N
1621882515.7,286046999.7,N
1621882535.5,286046999.5,N
1621882555.4,286047000.3,N
1621882575.2,286047002.1,N
1621882595.0,286046999.1,N
1621882595.9,286046999.1,N
1621882615.8,286046997.0,N
1621882635.6,286047000.0,N
1621882655.4,286046998.5,N
1621882675.3,286046997.0,N
1621882695.1,286046996.9,N
1621882715.9,286046999.5,N
1621882735.7,286046999.4,N
1621882755.5,286046996.9,N
1621882775.4,286046999.2,N
1621882795.2,286046999.1,N
